Regional Weather Roundup
Issued by NWS Charleston, WV

Home | Current Version | Previous Version | Graphics & Text | Print | Product List | Glossary On
Versions: 1 2 3 4 5 6 7 8 9 10 11 12 13 14 15 16 17 18 19 20 21 22 23 24 25 26 27 28 29 30 31 32 33 34 35 36 37 38 39 40 41 42 43 44 45 46 47 48 49 50
000
ASUS41 KRLX 020210
RWRRLX
West Virginia Regional Weather Roundup
National Weather Service Charleston WV
1000 PM EDT WED JUL 01 2015

Note: "fair" indicates few or no clouds below 12,000 feet with no
significant weather and/or obstructions to visibility.

WVZ003-020300-
Northern Panhandle of West Virginia

CITY           SKY/WX    TMP DP  RH WIND       PRES   REMARKS
WHEELING       CLEAR     68  58  70 CALM      29.95R
$$

WVZ009-020300-
Northwest West Virginia

CITY           SKY/WX    TMP DP  RH WIND       PRES   REMARKS
PARKERSBURG    NOT AVBL
$$

WVZ006-020300-
Western West Virginia

CITY           SKY/WX    TMP DP  RH WIND       PRES   REMARKS
HUNTINGTON     CLOUDY    72  68  87 CALM      29.92R
$$

WVZ015-020300-
West Central West Virginia

CITY           SKY/WX    TMP DP  RH WIND       PRES   REMARKS
CHARLESTON     PTCLDY    70  67  90 CALM      29.92S
$$

WVZ022-031-020300-
North Central West Virginia

CITY           SKY/WX    TMP DP  RH WIND       PRES   REMARKS
CLARKSBURG     CLEAR     65  61  87 CALM      29.94R
MORGANTOWN     CLEAR     67  58  72 CALM      29.95R
$$

WVZ025-035-042-045-020300-
Southern West Virginia

CITY           SKY/WX    TMP DP  RH WIND       PRES   REMARKS
BECKLEY        CLOUDY    68  62  81 SW6       30.00S
LOGAN          MOCLDY    70  68  94 CALM      29.93R FOG
BLUEFIELD      CLOUDY    68  62  81 W6        30.03S
LEWISBURG      HVY RAIN  69  65  87 CALM      30.00R
$$

WVZ047-020300-
Northern Mountains of West Virginia

CITY           SKY/WX    TMP DP  RH WIND       PRES   REMARKS
ELKINS         CLEAR     62  58  86 CALM      29.99R
$$

WVZ052-020300-
Eastern Panhandle of West Virginia

CITY           SKY/WX    TMP DP  RH WIND       PRES   REMARKS
MARTINSBURG    CLEAR     72  61  68 NW6       29.91R
PETERSBURG     PTCLDY    67  58  73 CALM      29.95R
$$


USA.gov is the U.S. government's official web portal to all federal, state and local government web resources and services.